Home > Weather > Cape Town > Past weeks

Flag for South Africa Past Weather in Cape Town, South Africa — Yesterday and Last 2 Weeks

Now
59 °F

Scattered clouds.


Feels Like: 57 °F
Forecast: 51 / 58 °F
Wind: 9 mph from Northwest

Location: Cape Town International Airport

Current Time: Jun 29, 2016 at 2:50:21 PM

Latest Report: Jun 29, 2016 at 2:00 PM


Visibility: N/A

Pressure: 30.21 "Hg

Humidity: 55%

Dew Point: 43 °F

Location of Cape TownLocation

Past Weather in Cape Town — Graph

°F

Cape Town Temperature Yesterday

Maximum temperature yesterday: 59 °F (at 2:00 PM)
Minimum temperature yesterday: 45 °F (at 4:00 AM)
Average temperature yesterday: 50 °F

High & Low Weather Summary for the Past Weeks

 TemperatureHumidityPressure
High77 °F (Jun 23, 2:00 PM)94% (Jun 14, 4:00 PM)30.45 "Hg (Jun 14, 4:00 PM)
Low37 °F (Jun 22, 8:00 AM)29% (Jun 23, 1:00 PM)29.89 "Hg (Jun 14, 11:00 PM)
Average54 °F79%30.17 "Hg
* Reported Jun 14 1:00 PM — Jun 29 1:00 PM, Cape Town, Weather by CustomWeather, © 2016

Note: Actual official high and low records may vary slightly from our data, if they occured in-between our weather recording intervals... More about our weather records

Advertising

Cape Town Weather History for the Previous 24 Hours

Scroll right to see more
 ConditionsComfort  
Time TempWeatherWind HumidityBarometerVisibility
1:00 PM
Wed, Jun 29
59 °FScattered clouds.9 mph59%30.24 "HgN/A
12:00 PM57 °FScattered clouds.10 mph63%30.27 "HgN/A
11:00 AM54 °FPassing clouds.12 mph72%30.27 "HgN/A
10:00 AM50 °FScattered clouds.14 mph76%30.27 "HgN/A
9:00 AM46 °FPassing clouds.10 mph82%30.27 "HgN/A
8:00 AM45 °FPassing clouds.9 mph81%30.24 "HgN/A
7:00 AM45 °FPassing clouds.12 mph87%30.24 "HgN/A
6:00 AM43 °FPassing clouds.9 mph87%30.21 "HgN/A
5:00 AM45 °FPassing clouds.10 mph87%30.21 "HgN/A
4:00 AM43 °FClear.7 mph87%30.24 "Hg10 mi
3:00 AM41 °FClear.8 mph93%30.24 "Hg10 mi
2:00 AM41 °FClear.7 mph93%30.24 "Hg10 mi
1:00 AM43 °FClear.5 mph87%30.24 "Hg10 mi
12:00 AM46 °FClear.2 mph82%30.24 "Hg10 mi
11:00 PM
Tue, Jun 28
45 °FClear.7 mph87%30.24 "Hg10 mi
10:00 PM45 °FClear.8 mph87%30.24 "Hg10 mi
9:00 PM46 °FPassing clouds.3 mph87%30.27 "HgN/A
8:00 PM50 °FPassing clouds.3 mph71%30.27 "HgN/A
7:00 PM52 °FPassing clouds.3 mph72%30.27 "HgN/A
6:00 PM54 °FPassing clouds.6 mph67%30.27 "HgN/A
5:00 PM57 °FPassing clouds.9 mph59%30.27 "HgN/A
4:00 PM57 °FPassing clouds.8 mph51%30.27 "HgN/A
3:00 PM59 °FScattered clouds.8 mph48%30.27 "HgN/A
2:00 PM59 °FScattered clouds.6 mph51%30.30 "HgN/A
Weather by CustomWeather, © 2016

See weather overviewHow to use our weather pages